User: anonymous   Login
Location: Rio Negrinho
(26.2394°S, 49.4999°W)
Time: 16:06:21
(UTC+00:00)
Language:

Cosmos 2123 Rocket - Orbit

View from above orbital plane
View from above orbital plane
View from above satellite
View from above satellite

Ground track
Ground track

The orbit data is extracted from the following two-line orbital elements,

1 21090U 91007B   20225.15983494  .00000050  00000-0  35443-4 0  9991
2 21090  82.9203 100.7312 0021859  56.1705 304.1528 13.76387961482458
Epoch (UTC): 12 August 2020 03:50:09
Eccentricity: 0.0021859
inclination: 82.9203°
perigee height: 960 km
apogee height: 993 km
right ascension of ascending node: 100.7312°
argument of perigee: 56.1705°
revolutions per day: 13.76387961
mean anomaly at epoch: 304.1528°
orbit number at epoch: 48245

The dashed part of the orbit path shows where the satellite is in the earth's shadow,  

DLR